CZ-6A DEB, 60768

Orbit data source: Space-Track

CZ-6A DEB, 60768 is space debris in LEO originally from a launch on Tue, 06 Aug 2024 UTC launched from the Taiyaun Space Center, China (TSC). Debris objects in space refer to the collection of defunct objects orbiting the Earth. Examples of debris include non-operational satellites, rocket bodies, and fragments generated from explosions, collisions, or faulty payload assembly.

Loading next visibility...
Identifier
60768, 2024-140ET
Orbit
LEO
Country
Flag of CNCN / PRC
Related business
Manufacturer
SAST
Mission
Spacecraft
Bus & Motor
Unknown
Mass
Unknown
Launch date (UTC)
2024-08-06 (2 years ago)
Launch vehicle
Unknown
Launch site
Taiyaun Space Center, China (TSC)
Object type
Payload
Rocket body
Debris
Shape & HBR
Unknown shape, 0.1 m
Radar Cross Section
Medium (>0.1 m² and <1 m²)

Expand to show TLE details & history
Last TLE update: 14 hours ago

TLE from 14 hours ago
0 CZ-6A DEB
1 60768U 24140ET  26171.26721652  .00002688  00000-0  54220-3 0  9996
2 60768  89.0936 277.4740 0109920 253.0563 105.8575 14.57434412 98441
Epoch: 2026-06-20T06:24Z
TLE epoch observation values (Epoch: 2026-06-20T06:24:47.507Z)
Latitude
-0.00011°
Longitude
-87.20824°
Altitude
726.634 km
Speed
7.48 km/s
True Right ascension
18h 29m 53s
True Declination
0° 00' 00"
Sunlit
Object was in full shadow at epoch
Visualization orbit readout
Latitude
Unknown
Longitude
Unknown
Altitude
Unknown
Speed
Unknown
Apparent Right ascension
Unknown
Apparent Declination
Unknown
Sunlit
N/A
Visualization observer readout
Local Sidereal Time
07:14:23
Azimuth
Unknown
Elevation
Unknown
Doppler factor
Unknown
Orbital elements
Apogee altitude
776.152 km
Perigee altitude
620.582 km
Semi-major axis
7,076.504 km
Eccentricity
0.01099
Inclination
89.0936°
RAAN
277.474°
Arg. of periapsis
253.0563°
True anomaly
107.06453°
Mean anomaly
105.8575°
Eccentric anomaly
106.46148°
Mean motion
3.64599 °/min
Orbital period
98.74 mins
BSTAR
0.0005422
Loading maneuver chart data...
Computing Atmospheric mass density...
Loading historical data...
Loading historical data...
Loading historical data...
Loading historical data...
Loading historical data...
Loading historical data...
Loading historical data...

Documentation

Showing up to 5 results
|